Hourly Weather Zaafrana

Today, 25 September, Friday

Time Temperature Precipitation Wind Pressure Humidity
00:00 +22°C° 0 mm 3 mps 744 mmHg 76%
01:00 +22°C° 0 mm 3 mps 744 mmHg 78%
02:00 +21°C° 0 mm 3 mps 744 mmHg 78%
03:00 +21°C° 0 mm 3 mps 744 mmHg 75%
04:00 +21°C° 0 mm 3 mps 744 mmHg 73%
05:00 +21°C° 0 mm 3 mps 744 mmHg 70%
06:00 +24°C° 0 mm 3 mps 744 mmHg 61%
07:00 +26°C° 0 mm 3 mps 744 mmHg 53%
08:00 +28°C° 0 mm 3 mps 744 mmHg 44%
09:00 +30°C° 0 mm 4 mps 744 mmHg 38%
10:00 +33°C° 0 mm 4 mps 744 mmHg 31%
11:00 +35°C° 0 mm 5 mps 744 mmHg 24%
12:00 +36°C° 0 mm 5 mps 743 mmHg 24%
13:00 +38°C° 0 mm 6 mps 742 mmHg 23%
14:00 +39°C° 0 mm 7 mps 742 mmHg 22%
15:00 +38°C° 0 mm 6 mps 742 mmHg 25%
16:00 +36°C° 0 mm 6 mps 742 mmHg 28%
17:00 +35°C° 0 mm 5 mps 742 mmHg 31%
18:00 +33°C° 0 mm 5 mps 742 mmHg 38%
19:00 +32°C° 0 mm 5 mps 742 mmHg 46%
20:00 +29°C° 0 mm 6 mps 743 mmHg 53%
21:00 +28°C° 0 mm 5 mps 743 mmHg 60%
22:00 +27°C° 0 mm 4 mps 743 mmHg 68%
23:00 +26°C° 0 mm 3 mps 743 mmHg 75%

Tomorrow, 26 September, Saturday

Time Temperature Precipitation Wind Pressure Humidity
00:00 +25°C° 0 mm 3 mps 743 mmHg 75%
01:00 +25°C° 0 mm 2 mps 743 mmHg 75%
02:00 +24°C° 0 mm 2 mps 742 mmHg 74%
03:00 +24°C° 0 mm 2 mps 742 mmHg 71%
04:00 +24°C° 0 mm 1 mps 742 mmHg 68%
05:00 +23°C° 0 mm 1 mps 742 mmHg 65%
06:00 +25°C° 0 mm 1 mps 742 mmHg 57%
07:00 +28°C° 0 mm 1 mps 743 mmHg 48%
08:00 +30°C° 0 mm 1 mps 743 mmHg 40%
09:00 +31°C° 0 mm 2 mps 743 mmHg 36%
10:00 +34°C° 0 mm 3 mps 743 mmHg 32%
11:00 +35°C° 0 mm 4 mps 743 mmHg 28%
12:00 +35°C° 0 mm 4 mps 742 mmHg 27%
13:00 +36°C° 0 mm 5 mps 742 mmHg 25%
14:00 +36°C° 0 mm 5 mps 741 mmHg 23%
15:00 +35°C° 0 mm 5 mps 741 mmHg 25%
16:00 +35°C° 0 mm 5 mps 741 mmHg 26%
17:00 +34°C° 0 mm 5 mps 741 mmHg 27%
18:00 +32°C° 0 mm 4 mps 741 mmHg 31%
19:00 +29°C° 0 mm 3 mps 742 mmHg 36%
20:00 +27°C° 0 mm 2 mps 742 mmHg 40%
21:00 +26°C° 0 mm 2 mps 742 mmHg 45%
22:00 +26°C° 0 mm 2 mps 743 mmHg 50%
23:00 +25°C° 0 mm 2 mps 743 mmHg 55%

Day after tomorrow, 27 September, Sunday

Time Temperature Precipitation Wind Pressure Humidity
00:00 +25°C° 0 mm 2 mps 743 mmHg 58%
01:00 +24°C° 0 mm 2 mps 743 mmHg 62%
02:00 +24°C° 0 mm 2 mps 742 mmHg 65%
03:00 +24°C° 0 mm 2 mps 743 mmHg 65%
04:00 +23°C° 0 mm 2 mps 743 mmHg 65%
05:00 +22°C° 0 mm 3 mps 743 mmHg 65%
06:00 +25°C° 0 mm 3 mps 743 mmHg 55%
07:00 +27°C° 0 mm 4 mps 744 mmHg 45%
08:00 +29°C° 0 mm 5 mps 744 mmHg 34%
09:00 +32°C° 0 mm 6 mps 744 mmHg 29%
10:00 +34°C° 0 mm 6 mps 744 mmHg 24%
11:00 +36°C° 0 mm 7 mps 744 mmHg 19%
12:00 +38°C° 0 mm 7 mps 743 mmHg 16%
13:00 +39°C° 0 mm 7 mps 743 mmHg 14%
14:00 +40°C° 0 mm 8 mps 742 mmHg 12%
15:00 +39°C° 0 mm 7 mps 742 mmHg 13%
16:00 +38°C° 0 mm 7 mps 742 mmHg 15%
17:00 +36°C° 0 mm 7 mps 742 mmHg 16%
18:00 +34°C° 0 mm 6 mps 743 mmHg 26%
19:00 +30°C° 0 mm 6 mps 743 mmHg 36%
20:00 +28°C° 0 mm 5 mps 744 mmHg 45%
21:00 +27°C° 0 mm 5 mps 744 mmHg 52%
22:00 +27°C° 0 mm 5 mps 744 mmHg 58%
23:00 +26°C° 0 mm 4 mps 744 mmHg 64%

28 September, Monday

Time Temperature Precipitation Wind Pressure Humidity
00:00 +26°C° 0 mm 4 mps 744 mmHg 64%
01:00 +26°C° 0 mm 4 mps 744 mmHg 63%
02:00 +26°C° 0 mm 4 mps 744 mmHg 63%
03:00 +26°C° 0 mm 4 mps 744 mmHg 61%
04:00 +26°C° 0 mm 4 mps 744 mmHg 59%
05:00 +26°C° 0 mm 4 mps 744 mmHg 57%
06:00 +28°C° 0 mm 5 mps 745 mmHg 49%
07:00 +30°C° 0 mm 5 mps 745 mmHg 41%
08:00 +33°C° 0 mm 6 mps 745 mmHg 33%
09:00 +35°C° 0 mm 7 mps 745 mmHg 29%
10:00 +38°C° 0 mm 7 mps 745 mmHg 24%
11:00 +40°C° 0 mm 8 mps 744 mmHg 19%
12:00 +42°C° 0 mm 9 mps 744 mmHg 17%
13:00 +43°C° 0 mm 9 mps 743 mmHg 15%
14:00 +45°C° 0 mm 10 mps 743 mmHg 13%
15:00 +43°C° 0 mm 9 mps 743 mmHg 15%
16:00 +42°C° 0 mm 9 mps 743 mmHg 17%
17:00 +40°C° 0 mm 8 mps 743 mmHg 19%
18:00 +38°C° 0 mm 8 mps 743 mmHg 25%
19:00 +35°C° 0 mm 7 mps 744 mmHg 32%
20:00 +32°C° 0 mm 6 mps 744 mmHg 38%
21:00 +32°C° 0 mm 5 mps 744 mmHg 38%
22:00 +30°C° 0 mm 5 mps 744 mmHg 38%
23:00 +29°C° 0 mm 4 mps 744 mmHg 38%

29 September, Tuesday

Time Temperature Precipitation Wind Pressure Humidity
00:00 +29°C° 0 mm 4 mps 744 mmHg 37%
01:00 +29°C° 0 mm 4 mps 744 mmHg 37%
02:00 +28°C° 0 mm 4 mps 744 mmHg 37%
03:00 +28°C° 0 mm 4 mps 744 mmHg 37%
04:00 +28°C° 0 mm 4 mps 744 mmHg 38%
05:00 +28°C° 0 mm 4 mps 744 mmHg 39%
06:00 +30°C° 0 mm 5 mps 744 mmHg 35%
07:00 +33°C° 0 mm 6 mps 744 mmHg 32%
08:00 +35°C° 0 mm 6 mps 744 mmHg 28%
09:00 +38°C° 0 mm 6 mps 744 mmHg 25%
10:00 +39°C° 0 mm 6 mps 743 mmHg 22%
11:00 +41°C° 0 mm 6 mps 743 mmHg 18%
12:00 +42°C° 0 mm 6 mps 742 mmHg 17%
13:00 +44°C° 0 mm 6 mps 742 mmHg 15%
14:00 +45°C° 0 mm 7 mps 741 mmHg 14%
15:00 +42°C° 0 mm 6 mps 741 mmHg 15%
16:00 +41°C° 0 mm 6 mps 741 mmHg 17%
17:00 +40°C° 0 mm 6 mps 740 mmHg 18%
18:00 +38°C° 0 mm 6 mps 741 mmHg 24%
19:00 +35°C° 0 mm 6 mps 741 mmHg 30%
20:00 +32°C° 0 mm 5 mps 742 mmHg 36%
21:00 +32°C° 0 mm 5 mps 742 mmHg 35%
22:00 +30°C° 0 mm 5 mps 742 mmHg 34%
23:00 +29°C° 0 mm 4 mps 742 mmHg 33%

30 September, Wednesday

Time Temperature Precipitation Wind Pressure Humidity
00:00 +29°C° 0 mm 4 mps 741 mmHg 35%
01:00 +28°C° 0 mm 4 mps 741 mmHg 37%
02:00 +28°C° 0 mm 4 mps 741 mmHg 40%
03:00 +28°C° 0 mm 4 mps 741 mmHg 40%
04:00 +27°C° 0 mm 4 mps 741 mmHg 41%
05:00 +27°C° 0 mm 4 mps 741 mmHg 42%
06:00 +29°C° 0 mm 5 mps 741 mmHg 37%
07:00 +32°C° 0 mm 5 mps 741 mmHg 32%
08:00 +34°C° 0 mm 6 mps 741 mmHg 27%
09:00 +36°C° 0 mm 6 mps 741 mmHg 24%
10:00 +39°C° 0 mm 7 mps 741 mmHg 21%
11:00 +41°C° 0 mm 8 mps 740 mmHg 18%
12:00 +41°C° 0 mm 8 mps 740 mmHg 17%
13:00 +43°C° 0 mm 8 mps 739 mmHg 16%
14:00 +43°C° 0 mm 9 mps 739 mmHg 16%
15:00 +41°C° 0 mm 8 mps 739 mmHg 17%
16:00 +40°C° 0 mm 8 mps 738 mmHg 18%
17:00 +39°C° 0 mm 7 mps 738 mmHg 19%
18:00 +35°C° 0 mm 7 mps 739 mmHg 28%
19:00 +33°C° 0 mm 6 mps 739 mmHg 37%
20:00 +30°C° 0 mm 5 mps 740 mmHg 46%
21:00 +29°C° 0 mm 4 mps 740 mmHg 50%
22:00 +28°C° 0 mm 4 mps 740 mmHg 54%
23:00 +27°C° 0 mm 3 mps 740 mmHg 58%
Show more